W1LBM Weather Reports


time (UTC)temp
C
wind
direction
speed
KPH
gust
KPH
rain 1hr
cm
rain 24hr
cm
rain mn
cm
humidity
%
barometer
mb
20260505024842 12 151 1.6 1.6 0.00 0.00 0.00 69 1014.5
20260505024339 12 126 3.2 3.2 0.00 0.00 0.00 68 1014.5
20260505023836 12 188 0.0 1.6 0.00 0.00 0.00 69 1014.4
20260505023332 12 164 1.6 3.2 0.00 0.00 0.00 68 1014.5
20260505022830 12 194 6.4 9.7 0.00 0.00 0.00 67 1014.7
20260505022327 12 147 3.2 4.8 0.00 0.00 0.00 68 1014.5
20260505021824 12 149 3.2 4.8 0.00 0.00 0.00 67 1014.7
20260505021321 12 195 4.8 4.8 0.00 0.00 0.00 66 1014.6
20260505020816 12 146 0.0 0.0 0.00 0.00 0.00 66 1014.6
20260505020312 12 182 8.0 9.7 0.00 0.00 0.00 66 1014.8
20260505015809 13 176 4.8 4.8 0.00 0.00 0.00 65 1014.7
20260505015306 13 181 1.6 1.6 0.00 0.00 0.00 65 1014.5
20260505014804 13 166 3.2 3.2 0.00 0.00 0.00 64 1014.6
20260505014301 13 140 3.2 3.2 0.00 0.00 0.00 64 1014.8
20260505013757 13 178 6.4 6.4 0.00 0.00 0.00 63 1014.6
20260505013254 13 156 4.8 6.4 0.00 0.00 0.00 63 1014.5
20260505012753 13 160 3.2 4.8 0.00 0.00 0.00 63 1014.5
20260505012250 12 148 0.0 0.0 0.00 0.00 0.00 64 1014.3
20260505011745 13 142 0.0 0.0 0.00 0.00 0.00 62 1014.1
20260505011242 13 154 1.6 1.6 0.00 0.00 0.00 61 1014.0
20260505010738 13 209 0.0 1.6 0.00 0.00 0.00 60 1014.1
20260505010234 13 185 6.4 9.7 0.00 0.00 0.00 60 1014.0
20260505005731 13 211 3.2 4.8 0.00 0.00 0.00 59 1013.9
20260505005228 13 126 0.0 0.0 0.00 0.00 0.00 58 1013.6
20260505004725 13 154 1.6 1.6 0.00 0.00 0.00 57 1013.7
20260505004222 14 126 3.2 4.8 0.00 0.00 0.00 56 1013.6
20260505003719 14 181 1.6 3.2 0.00 0.00 0.00 56 1013.5
20260505003217 14 144 3.2 4.8 0.00 0.00 0.00 55 1013.4
20260505002713 14 161 3.2 3.2 0.00 0.00 0.00 55 1013.2
20260505002211 15 144 0.0 0.0 0.00 0.00 0.00 54 1013.1
20260505001708 15 148 0.0 1.6 0.00 0.00 0.00 53 1013.1
20260505001205 15 167 1.6 3.2 0.00 0.00 0.00 52 1012.9
20260505000702 15 175 3.2 3.2 0.00 0.00 0.00 51 1012.8
20260505000200 15 177 3.2 4.8 0.00 0.00 0.00 51 1013.0
20260504235656 15 115 1.6 3.2 0.00 0.00 0.00 51 1012.9
20260504235152 15 195 3.2 4.8 0.00 0.00 0.00 50 1012.6
20260504234650 15 187 1.6 1.6 0.00 0.00 0.00 51 1012.8
20260504234147 15 165 1.6 4.8 0.00 0.00 0.00 49 1012.4
20260504233643 16 164 3.2 3.2 0.00 0.00 0.00 49 1012.4
20260504233139 16 169 1.6 3.2 0.00 0.00 0.00 48 1012.4
20260504232637 16 172 4.8 6.4 0.00 0.00 0.00 48 1012.2
20260504232133 16 190 1.6 1.6 0.00 0.00 0.00 47 1012.5
20260504231630 16 155 3.2 3.2 0.00 0.00 0.00 46 1012.3
20260504231126 16 207 9.7 16.1 0.00 0.00 0.00 46 1012.0
20260504230622 17 201 4.8 9.7 0.00 0.00 0.00 45 1012.0
20260504230122 17 175 1.6 3.2 0.00 0.00 0.00 46 1012.1
20260504225619 17 154 3.2 3.2 0.00 0.00 0.00 46 1012.1
20260504225115 17 153 3.2 4.8 0.00 0.00 0.00 46 1012.0
20260504224612 17 183 8.0 12.9 0.00 0.00 0.00 46 1012.0
20260504224109 17 174 4.8 4.8 0.00 0.00 0.00 45 1011.7
20260504223606 17 167 6.4 12.9 0.00 0.00 0.00 46 1011.8
20260504223101 18 168 6.4 11.3 0.00 0.00 0.00 44 1011.8
20260504222559 18 186 4.8 4.8 0.00 0.00 0.00 44 1011.8
20260504222056 18 169 1.6 1.6 0.00 0.00 0.00 44 1011.6
20260504221553 18 200 9.7 17.7 0.00 0.00 0.00 43 1011.7
20260504221050 18 230 8.0 12.9 0.00 0.00 0.00 43 1011.6
20260504220546 18 241 6.4 6.4 0.00 0.00 0.00 42 1011.5
20260504220043 19 206 4.8 4.8 0.00 0.00 0.00 43 1011.5
20260504215540 18 200 4.8 14.5 0.00 0.00 0.00 43 1011.6
20260504215038 19 217 3.2 3.2 0.00 0.00 0.00 43 1011.6
20260504214533 19 209 4.8 4.8 0.00 0.00 0.00 42 1011.6
20260504214030 18 190 6.4 9.7 0.00 0.00 0.00 42 1011.5
20260504213526 19 170 8.0 11.3 0.00 0.00 0.00 42 1011.5
20260504213024 20 192 11.3 14.5 0.00 0.00 0.00 41 1011.5
20260504212519 19 201 9.7 14.5 0.00 0.00 0.00 41 1011.3
20260504212017 20 219 3.2 3.2 0.00 0.00 0.00 40 1011.3
20260504211514 19 183 6.4 9.7 0.00 0.00 0.00 41 1011.4
20260504211011 20 208 16.1 20.9 0.00 0.00 0.00 39 1011.4
20260504210508 20 165 0.0 0.0 0.00 0.00 0.00 39 1011.2
20260504210004 20 211 6.4 6.4 0.00 0.00 0.00 38 1011.2
20260504205502 20 149 1.6 3.2 0.00 0.00 0.00 40 1011.3
20260504205000 20 125 1.6 1.6 0.00 0.00 0.00 39 1011.2
20260504204458 20 178 4.8 9.7 0.00 0.00 0.00 39 1011.3
20260504203957 20 256 6.4 9.7 0.00 0.00 0.00 39 1011.1
20260504203454 20 163 4.8 6.4 0.00 0.00 0.00 38 1011.2
20260504202950 20 199 8.0 12.9 0.00 0.00 0.00 37 1011.0
20260504202447 21 208 4.8 6.4 0.00 0.00 0.00 35 1011.0
20260504201944 20 133 3.2 3.2 0.00 0.00 0.00 35 1011.3
20260504201441 20 126 3.2 6.4 0.00 0.00 0.00 35 1011.3
20260504200938 20 270 4.8 6.4 0.00 0.00 0.00 35 1011.3
20260504200435 20 218 8.0 11.3 0.00 0.00 0.00 34 1011.2
20260504195932 20 187 4.8 6.4 0.00 0.00 0.00 34 1011.1
20260504195427 20 199 4.8 4.8 0.00 0.00 0.00 34 1011.2
20260504194924 20 267 4.8 6.4 0.00 0.00 0.00 35 1011.4
20260504194420 20 194 8.0 9.7 0.00 0.00 0.00 34 1011.4
20260504193916 20 146 1.6 1.6 0.00 0.00 0.00 34 1011.3
20260504193414 21 203 9.7 14.5 0.00 0.00 0.00 33 1011.4
20260504192913 20 170 9.7 12.9 0.00 0.00 0.00 33 1011.4
20260504192409 20 200 4.8 4.8 0.00 0.00 0.00 32 1011.2
20260504191908 21 176 11.3 16.1 0.00 0.00 0.00 32 1011.2
20260504191406 20 214 6.4 9.7 0.00 0.00 0.00 32 1011.1
20260504190901 21 216 3.2 4.8 0.00 0.00 0.00 34 1011.3
20260504190357 20 205 12.9 16.1 0.00 0.00 0.00 33 1011.3
20260504185853 21 227 4.8 6.4 0.00 0.00 0.00 34 1011.3
20260504185351 21 172 4.8 6.4 0.00 0.00 0.00 33 1011.5
20260504184846 20 216 6.4 6.4 0.00 0.00 0.00 32 1011.5
20260504184343 21 182 6.4 9.7 0.00 0.00 0.00 32 1011.6
20260504183839 20 208 9.7 11.3 0.00 0.00 0.00 33 1011.4
20260504183336 21 207 6.4 9.7 0.00 0.00 0.00 33 1011.5
20260504182834 20 198 1.6 3.2 0.00 0.00 0.00 33 1011.8
20260504182331 20 187 3.2 4.8 0.00 0.00 0.00 33 1011.7
20260504181828 20 193 3.2 4.8 0.00 0.00 0.00 33 1011.9
20260504181325 20 214 1.6 3.2 0.00 0.00 0.00 32 1011.9
20260504180824 20 146 9.7 14.5 0.00 0.00 0.00 33 1011.8
20260504180322 20 181 9.7 11.3 0.00 0.00 0.00 34 1011.9
20260504175820 20 184 6.4 11.3 0.00 0.00 0.00 35 1011.8
20260504175317 20 269 6.4 9.7 0.00 0.00 0.00 34 1011.8
20260504174815 20 166 6.4 9.7 0.00 0.00 0.00 33 1012.0
20260504174312 20 229 4.8 6.4 0.00 0.00 0.00 33 1011.9
20260504173808 20 178 4.8 6.4 0.00 0.00 0.00 33 1012.1
20260504173305 20 254 8.0 9.7 0.00 0.00 0.00 33 1011.8
20260504172802 20 223 4.8 6.4 0.00 0.00 0.00 34 1011.7
20260504172259 20 165 6.4 11.3 0.00 0.00 0.00 33 1011.8
20260504171754 20 231 6.4 6.4 0.00 0.00 0.00 34 1012.0
20260504171252 20 183 1.6 3.2 0.00 0.00 0.00 35 1012.1
20260504170749 20 239 1.6 3.2 0.00 0.00 0.00 34 1012.0
20260504170246 20 176 9.7 12.9 0.00 0.00 0.00 33 1012.1
20260504160204 19 179 8.0 12.9 0.00 0.00 0.00 33 1012.8
20260504151132 17 231 6.4 9.7 0.00 0.00 0.00 37 1013.2
20260504150630 17 172 4.8 4.8 0.00 0.00 0.00 37 1013.5
20260504150126 17 261 4.8 9.7 0.00 0.00 0.00 37 1013.4
20260504141055 16 178 1.6 1.6 0.00 0.00 0.00 44 1014.0
20260504140552 16 212 6.4 6.4 0.00 0.00 0.00 40 1014.2
20260504130516 14 194 3.2 3.2 0.00 0.00 0.00 44 1014.3
20260504110403 8 139 0.0 0.0 0.00 0.00 0.00 59 1014.5
20260504100320 3 135 0.0 0.0 0.00 0.00 0.00 71 1014.4
20260504081714 5 132 0.0 0.0 0.00 0.00 0.00 65 1014.0
20260504081210 5 132 0.0 0.0 0.00 0.00 0.00 64 1014.1
20260504080707 6 132 0.0 0.0 0.00 0.00 0.00 64 1014.1
20260504080203 6 132 0.0 0.0 0.00 0.00 0.00 63 1014.0
20260504070131 5 140 0.0 0.0 0.00 0.00 0.00 70 1013.9
20260504050520 4 141 0.0 0.0 0.00 0.00 0.00 68 1014.0
20260504050017 4 135 0.0 0.0 0.00 0.00 0.00 66 1014.1
20260504045513 3 140 0.0 0.0 0.00 0.00 0.00 67 1014.0
20260504045009 3 141 0.0 0.0 0.00 0.00 0.00 67 1014.1
20260504044507 3 139 0.0 0.0 0.00 0.00 0.00 68 1014.1
20260504044003 3 138 0.0 0.0 0.00 0.00 0.00 68 1014.2
20260504043500 3 138 0.0 0.0 0.00 0.00 0.00 67 1014.0
20260504042958 3 138 0.0 0.0 0.00 0.00 0.00 67 1013.9
20260504042454 3 139 0.0 0.0 0.00 0.00 0.00 69 1013.8
20260504041951 3 144 0.0 0.0 0.00 0.00 0.00 71 1013.9
20260504041447 2 141 0.0 0.0 0.00 0.00 0.00 72 1014.0
20260504040943 2 135 0.0 0.0 0.00 0.00 0.00 71 1014.0
20260504040441 2 134 0.0 0.0 0.00 0.00 0.00 71 1013.8
20260504035937 2 134 0.0 0.0 0.00 0.00 0.00 72 1013.9
20260504035435 2 132 0.0 0.0 0.00 0.00 0.00 72 1013.9
20260504034931 2 138 0.0 0.0 0.00 0.00 0.00 73 1013.9
20260504034429 2 138 0.0 0.0 0.00 0.00 0.00 73 1013.8
20260504033926 2 139 0.0 0.0 0.00 0.00 0.00 73 1013.6
20260504033423 2 137 0.0 0.0 0.00 0.00 0.00 73 1013.7
20260504032920 2 137 0.0 0.0 0.00 0.00 0.00 72 1013.6
20260504032417 2 137 0.0 0.0 0.00 0.00 0.00 71 1013.6
20260504031914 2 137 0.0 0.0 0.00 0.00 0.00 71 1013.6
20260504031411 2 137 0.0 0.0 0.00 0.00 0.00 72 1013.6
20260504030907 2 143 0.0 0.0 0.00 0.00 0.00 71 1013.4
20260504030405 2 153 0.0 0.0 0.00 0.00 0.00 72 1013.5
20260504025900 2 138 0.0 0.0 0.00 0.00 0.00 73 1013.6
20260504025357 2 140 0.0 0.0 0.00 0.00 0.00 72 1013.4